1494230400.01,27185,15.5,72814.0,9.43,-11.51,-17.41,0,*7D
1494230401.26,27186,15.5,72816.0,9.41,-12.11,-18.17,0,*77
1494230402.48,27187,15.5,72812.3,9.37,-12.39,-18.35,0,*7D
1494230403.7,27188,15.5,72812.0,9.37,-12.07,-18.07,0,*7E
1494230404.98,27189,15.5,72814.3,9.35,-11.89,-17.97,0,*7E
1494230406.23,27190,15.5,72812.0,9.31,-11.77,-17.87,0,*72
1494230407.48,27191,15.5,72814.8,9.27,-11.55,-17.73,0,*7F
1494230408.71,27192,15.5,72810.5,9.27,-10.57,-16.59,0,*76
1494230409.94,27193,15.5,72810.3,9.27,-10.57,-16.55,0,*7B
1494230411.17,27194,15.5,72814.5,9.27,-10.57,-16.55,0,*7C
1494230412.41,27195,15.5,72812.8,9.27,-10.27,-16.27,0,*7F
1494230413.64,27196,15.5,72816.8,9.25,-10.49,-16.69,0,*7C
1494230414.83,27197,15.5,72814.3,9.25,-11.11,-17.49,0,*72
1494230416.06,27198,15.5,72812.8,9.23,-10.23,-16.59,0,*7B
1494230417.29,27199,15.5,72814.0,9.23,-9.79,-15.95,0,*4E
1494230418.51,27200,15.5,72814.0,9.23,-9.79,-16.03,0,*41
1494230419.75,27201,15.5,72816.3,9.23,-9.67,-16.09,0,*45
1494230421.0,27202,15.5,72818.5,9.23,-9.53,-16.03,0,*4B
1494230422.27,27203,15.5,72814.0,9.23,-9.41,-15.81,0,*40
1494230423.51,27204,15.5,72812.0,9.23,-9.83,-16.45,0,*42
1494230424.75,27205,15.5,72814.8,9.23,-10.09,-16.65,0,*7B
1494230425.97,27206,15.5,72812.0,9.23,-10.09,-16.79,0,*75
1494230427.19,27207,15.5,72816.8,9.19,-11.19,-18.21,0,*7E
1494230428.41,27208,15.5,72814.5,9.19,-11.19,-18.17,0,*74
1494230429.65,27209,15.5,72812.0,9.15,-10.75,-17.73,0,*7F
1494230430.91,27210,15.5,72814.3,9.15,-10.75,-17.87,0,*7C
1494230432.14,27211,15.5,72814.0,9.13,-10.67,-17.83,0,*7C
1494230433.41,27212,15.5,72816.3,9.11,-10.67,-17.87,0,*79
1494230434.66,27213,15.5,72818.3,9.11,-11.55,-19.13,0,*7B
1494230435.91,27214,15.5,72818.5,9.05,-10.45,-17.79,0,*7B
1494230437.11,27215,15.5,72818.0,9.03,-9.93,-17.25,0,*46
1494230438.39,27216,15.5,72814.5,9.05,-10.67,-18.35,0,*7E
1494230439.62,27217,15.5,72816.0,9.01,-10.31,-17.83,0,*7A
1494230440.85,27218,15.5,72818.0,9.01,-10.93,-18.69,0,*76
1494230442.09,27219,15.5,72816.5,8.97,-11.11,-18.93,0,*77
1494230443.31,27220,15.5,72812.8,8.97,-10.49,-18.21,0,*78
1494230444.53,27221,15.5,72812.0,8.95,-10.41,-18.25,0,*77
1494230445.76,27222,15.5,72812.8,8.93,-9.49,-17.31,0,*48
1494230447.03,27223,15.5,72812.8,8.93,-9.37,-17.21,0,*41
1494230448.31,27224,15.5,72814.3,8.93,-9.15,-17.03,0,*46
1494230449.56,27225,15.5,72812.0,8.91,-9.15,-17.17,0,*40
1494230450.81,27226,15.5,72812.0,8.91,-9.15,-17.21,0,*46
1494230452.02,27227,15.5,72814.8,8.91,-10.35,-18.69,0,*7E
1494230453.26,27228,15.5,72812.8,8.89,-9.45,-17.73,0,*43
1494230454.47,27229,15.5,72808.8,8.89,-10.23,-18.79,0,*7F
1494230455.68,27230,15.5,72810.0,8.85,-9.97,-18.41,0,*47
1494230456.93,27231,15.5,72812.0,8.85,-10.27,-18.93,0,*7A
1494230458.14,27232,15.5,72812.0,8.85,-9.89,-18.41,0,*4A
1494230459.34,27233,15.5,72812.0,8.79,-10.57,-19.47,0,*74
1494230460.54,27234,15.5,72812.5,8.79,-10.23,-18.99,0,*72
1494230461.78,27235,15.5,72814.0,8.77,-10.09,-18.89,0,*74
1494230463.05,27236,15.5,72814.3,8.75,-9.45,-18.31,0,*46
1494230464.27,27237,15.5,72812.8,8.75,-10.89,-19.99,0,*7C
1494230465.55,27238,15.5,72814.5,8.71,-11.33,-20.53,0,*7B
1494230466.81,27239,15.5,72810.3,8.71,-10.63,-19.75,0,*70
1494230468.05,27240,15.5,72812.0,8.67,-9.71,-18.89,0,*40
1494230469.24,27241,15.5,72812.8,8.69,-9.93,-19.03,0,*40
1494230470.46,27242,15.5,72814.0,8.69,-10.05,-19.31,0,*75
1494230471.73,27243,15.5,72812.5,8.63,-10.71,-20.15,0,*71
1494230472.96,27244,15.5,72814.8,8.63,-10.31,-19.75,0,*7E
1494230474.22,27245,15.5,72810.8,8.59,-10.27,-19.61,0,*74
1494230475.43,27246,15.5,72812.5,8.59,-9.67,-19.03,0,*4F
1494230476.67,27247,15.5,72812.3,8.63,-9.97,-19.41,0,*4E
1494230477.9,27248,15.5,72816.0,8.57,-11.07,-20.69,0,*76
1494230479.09,27249,15.5,72812.3,8.57,-9.67,-19.03,0,*4E
1494230480.3,27250,15.5,72812.0,8.55,-9.67,-19.03,0,*44
1494230481.55,27251,15.5,72810.8,8.55,-9.37,-18.69,0,*4D
1494230482.75,27252,15.5,72812.5,8.57,-9.57,-19.07,0,*43
1494230483.95,27253,15.5,72810.8,8.53,-11.23,-21.09,0,*79
1494230485.15,27254,15.5,72812.0,8.53,-10.53,-20.29,0,*7B
1494230486.37,27255,15.5,72814.0,8.55,-9.97,-19.51,0,*49
1494230487.57,27256,15.5,72814.8,8.53,-10.35,-19.99,0,*78
1494230488.78,27257,15.5,72814.0,8.53,-10.23,-19.99,0,*7E
1494230490.02,27258,15.5,72810.8,8.51,-10.45,-20.15,0,*7D
1494230491.22,27259,15.5,72812.3,8.53,-10.01,-19.71,0,*76
1494230492.46,27260,15.5,72810.0,8.51,-10.09,-19.65,0,*73
1494230493.69,27261,15.5,72814.0,8.53,-10.23,-19.85,0,*76
1494230494.92,27262,15.5,72814.8,8.51,-10.27,-19.91,0,*76
1494230496.12,27263,15.5,72812.5,8.53,-10.23,-19.91,0,*71
1494230497.36,27264,15.5,72816.5,8.53,-10.71,-20.63,0,*76
1494230498.56,27265,15.5,72812.5,8.49,-11.11,-21.13,0,*7D
1494230499.77,27266,15.5,72816.5,8.49,-10.89,-20.89,0,*7C
1494230501.02,27267,15.5,72812.8,8.49,-11.67,-21.83,0,*77
1494230502.3,27268,15.5,72810.3,8.47,-11.77,-21.87,0,*73
1494230503.56,27269,15.5,72814.0,8.47,-11.19,-21.23,0,*74
1494230504.79,27270,15.5,72812.3,8.45,-12.35,-22.87,0,*7E
1494230506.06,27271,15.5,72812.5,8.41,-11.37,-21.57,0,*74
1494230507.25,27272,15.5,72812.0,8.39,-11.41,-21.73,0,*7F
1494230508.5,27273,15.5,72814.0,8.41,-11.97,-22.41,0,*78
1494230509.77,27274,15.5,72808.8,8.41,-11.37,-21.57,0,*71
1494230511.0,27275,15.5,72808.8,8.45,-10.79,-21.17,0,*7B
1494230512.22,27276,15.5,72810.5,8.39,-11.29,-21.77,0,*71
1494230513.47,27277,15.5,72812.0,8.39,-11.37,-21.87,0,*70
1494230514.67,27278,15.5,72808.3,8.39,-11.01,-21.47,0,*76
1494230515.87,27279,15.5,72808.3,8.39,-10.97,-21.47,0,*79
1494230517.09,27280,15.5,72810.3,8.39,-11.41,-22.21,0,*76
1494230518.29,27281,15.5,72808.5,8.35,-11.41,-22.03,0,*7B
1494230519.51,27282,15.5,72808.8,8.39,-10.75,-21.63,0,*77
1494230520.71,27283,15.5,72810.5,8.39,-11.15,-22.11,0,*77
1494230521.9,27284,15.5,72810.3,8.39,-11.15,-21.93,0,*79
1494230523.12,27285,15.5,72812.5,8.39,-11.37,-22.41,0,*74
1494230524.33,27286,15.5,72814.5,8.35,-11.33,-22.41,0,*7F
1494230525.56,27287,15.5,72812.3,8.35,-11.73,-22.93,0,*75
1494230526.78,27288,15.5,72814.0,8.39,-11.37,-22.57,0,*7E
1494230528.0,27289,15.5,72812.3,8.35,-11.41,-22.73,0,*74
1494230529.23,27290,15.5,72812.8,8.35,-11.55,-23.13,0,*7E
1494230530.45,27291,15.5,72812.3,8.35,-12.47,-24.21,0,*79
1494230531.73,27292,15.5,72814.0,8.33,-11.63,-23.19,0,*75
1494230532.99,27293,15.5,72816.3,8.35,-11.63,-23.23,0,*7B
1494230534.24,27294,15.5,72814.8,8.33,-12.53,-24.47,0,*7F
1494230535.48,27295,15.5,72816.3,8.33,-12.29,-24.11,0,*70
1494230536.75,27296,15.5,72814.5,8.33,-12.15,-23.95,0,*77
1494230538.0,27297,15.5,72812.0,8.29,-12.35,-24.31,0,*76
1494230539.25,27298,15.5,72816.3,8.29,-11.63,-23.39,0,*76
1494230540.51,27299,15.5,72812.5,8.29,-11.41,-23.23,0,*7C
1494230541.73,27300,15.5,72812.3,8.31,-11.23,-23.19,0,*79
1494230543.0,27301,15.5,72812.0,8.29,-11.97,-24.11,0,*71
1494230544.26,27302,15.5,72814.3,8.29,-11.73,-24.11,0,*78
1494230545.51,27303,15.5,72814.0,8.27,-11.37,-23.49,0,*7D
1494230546.76,27304,15.5,72814.3,8.29,-11.23,-23.49,0,*71
1494230548.03,27305,15.5,72812.0,8.29,-11.37,-23.53,0,*7E
1494230549.3,27306,15.5,72812.5,8.29,-11.37,-23.65,0,*78
1494230550.52,27307,15.5,72814.0,8.31,-12.07,-24.77,0,*74
1494230551.72,27308,15.5,72818.8,8.27,-12.25,-25.19,0,*75
1494230552.94,27309,15.5,72812.8,8.27,-11.85,-24.51,0,*70
1494230554.19,27310,15.5,72814.5,8.25,-12.29,-25.03,0,*79
1494230555.41,27311,15.5,72814.3,8.23,-11.77,-24.47,0,*77
1494230556.61,27312,15.5,72818.3,8.23,-12.21,-25.23,0,*77
1494230557.84,27313,15.5,72816.0,8.21,-13.65,-27.03,0,*75
1494230559.1,27314,15.5,72812.0,8.17,-14.55,-28.15,0,*7B
1494230560.35,27315,15.5,72814.5,8.17,-13.33,-26.61,0,*70
1494230561.59,27316,15.5,72812.3,8.11,-12.61,-25.91,0,*7F
1494230562.84,27317,15.5,72806.3,8.11,-12.71,-26.03,0,*77
1494230564.12,27318,15.5,72808.8,8.11,-13.29,-26.71,0,*71
1494230565.36,27319,15.5,72808.3,8.07,-13.37,-27.07,0,*78
1494230566.62,27320,15.5,72808.5,8.03,-13.83,-27.51,0,*7A
1494230567.9,27321,15.5,72808.3,8.03,-13.79,-27.61,0,*7D
1494230569.12,27322,15.5,72810.8,7.99,-13.65,-27.77,0,*78
1494230570.35,27323,15.5,72810.3,7.97,-13.07,-26.93,0,*78
1494230571.6,27324,15.5,72812.0,7.95,-13.15,-26.97,0,*7A
1494230572.86,27325,15.5,72812.0,7.95,-13.01,-27.03,0,*72
1494230574.12,27326,15.5,72808.0,7.89,-13.97,-27.83,0,*7B
1494230575.34,27327,15.5,72810.0,7.89,-12.15,-25.91,0,*70
1494230576.6,27328,15.5,72814.0,7.87,-12.65,-26.45,0,*7C
1494230577.83,27329,15.5,72814.0,7.85,-13.07,-27.23,0,*7B
1494230579.05,27330,15.5,72812.3,7.85,-13.79,-27.93,0,*71
1494230580.29,27331,15.5,72814.8,7.85,-12.21,-25.97,0,*7A
1494230581.54,27332,15.5,72812.3,7.83,-12.39,-26.29,0,*70
1494230582.79,27333,15.5,72814.8,7.83,-12.97,-26.93,0,*74
1494230584.02,27334,15.5,72812.5,7.81,-13.65,-27.99,0,*76
1494230585.23,27335,15.5,72812.3,7.81,-13.11,-27.13,0,*76
1494230586.43,27336,15.5,72810.8,7.79,-13.55,-27.67,0,*71
1494230587.68,27337,15.5,72814.5,7.77,-13.79,-27.77,0,*71
1494230588.93,27338,15.5,72810.3,7.77,-13.79,-27.89,0,*7F
1494230590.18,27339,15.5,72808.5,7.73,-13.65,-27.61,0,*71
1494230591.43,27340,15.5,72808.5,7.73,-12.57,-26.03,0,*7A
1494230592.67,27341,15.5,72814.3,7.73,-12.83,-26.45,0,*70
1494230593.92,27342,15.5,72810.3,7.73,-13.83,-27.67,0,*73
1494230595.18,27343,15.5,72812.8,7.71,-13.83,-27.35,0,*77
1494230596.41,27344,15.5,72812.0,7.71,-12.97,-26.33,0,*73
1494230597.66,27345,15.5,72808.5,7.71,-12.83,-26.13,0,*75
1494230598.9,27346,15.5,72810.0,7.73,-12.83,-26.03,0,*75
1494230600.1,27347,15.5,72810.3,7.71,-12.43,-25.35,0,*7C
1494230601.33,27348,15.5,72810.8,7.71,-13.19,-26.17,0,*7E
1494230602.55,27349,15.5,72810.3,7.71,-13.43,-26.33,0,*76
1494230603.75,27350,15.5,72812.0,7.75,-13.69,-26.61,0,*75
1494230604.97,27351,15.5,72810.5,7.73,-13.69,-26.65,0,*76
1494230606.19,27352,15.5,72814.0,7.73,-13.93,-26.65,0,*70
1494230607.42,27353,15.5,72812.3,7.71,-14.55,-27.29,0,*77
1494230608.63,27354,15.5,72814.0,7.71,-14.97,-27.77,0,*75
1494230609.88,27355,15.5,72812.3,7.67,-15.21,-28.05,0,*75
1494230611.15,27356,15.5,72808.0,7.65,-14.79,-27.19,0,*7A
1494230612.37,27357,15.5,72812.0,7.65,-13.93,-26.07,0,*76
1494230613.63,27358,15.5,72812.8,7.65,-14.15,-26.29,0,*7C
1494230614.83,27359,15.5,72812.3,7.67,-13.73,-25.87,0,*7F
1494230616.05,27360,15.5,72812.3,7.67,-15.89,-28.53,0,*72
1494230617.25,27361,15.5,72810.5,7.67,-16.89,-29.57,0,*75
1494230618.51,27362,15.5,72812.5,7.63,-16.13,-28.63,0,*77
1494230619.73,27363,15.5,72814.0,7.63,-15.25,-27.45,0,*7B
1494230620.95,27364,15.5,72814.3,7.63,-13.15,-25.03,0,*79
1494230622.17,27365,15.5,72814.5,7.65,-12.89,-24.61,0,*7F
1494230623.42,27366,15.5,72812.3,7.65,-13.29,-25.23,0,*70
1494230624.65,27367,15.5,72812.3,7.71,-14.23,-26.17,0,*7D
1494230625.85,27368,15.5,72812.8,7.67,-14.33,-26.03,0,*71
1494230627.1,27369,15.5,72810.8,7.73,-13.69,-25.29,0,*76
1494230628.33,27370,15.5,72808.0,7.73,-13.43,-24.77,0,*7C
1494230629.55,27371,15.5,72810.3,7.75,-13.79,-25.09,0,*7A
1494230630.81,27372,15.5,72808.8,7.79,-14.47,-25.71,0,*70
1494230632.04,27373,15.5,72810.3,7.77,-15.11,-26.39,0,*72
1494230633.29,27374,15.5,72810.3,7.77,-17.17,-28.97,0,*7B
1494230634.51,27375,15.5,72808.5,7.75,-17.69,-29.35,0,*78
1494230635.73,27376,15.5,72806.0,7.75,-16.51,-27.77,0,*79
1494230636.98,27377,15.5,72808.5,7.75,-15.39,-26.55,0,*74
1494230638.23,27378,15.56,72812.0,7.77,-14.05,-24.93,0,*7F
1494230639.49,27379,15.5,72812.0,7.77,-13.51,-24.25,0,*75
1494230640.74,27380,15.5,72812.8,7.79,-13.61,-24.41,0,*7C
1494230641.97,27381,15.56,72816.3,7.83,-13.69,-24.61,0,*72
1494230643.22,27382,15.5,72812.5,7.83,-14.11,-24.83,0,*75
1494230644.47,27383,15.5,72812.5,7.83,-15.85,-26.65,0,*72
1494230645.67,27384,15.5,72810.3,7.85,-15.49,-26.07,0,*77
1494230646.93,27385,15.5,72810.5,7.87,-15.11,-25.71,0,*7B
1494230648.21,27386,15.56,72812.8,7.87,-14.97,-25.71,0,*77
1494230649.47,27387,15.5,72814.8,7.87,-15.07,-25.71,0,*7E
1494230650.75,27388,15.5,72814.8,7.87,-14.79,-25.45,0,*7E
1494230651.97,27389,15.5,72812.5,7.87,-14.65,-25.23,0,*72
1494230653.18,27390,15.5,72812.3,7.89,-14.89,-25.61,0,*70
1494230654.41,27391,15.5,72814.8,7.89,-14.93,-25.65,0,*7E
1494230655.65,27392,15.5,72812.3,7.89,-14.47,-25.23,0,*76
1494230656.9,27393,15.56,72816.5,7.93,-15.21,-26.13,0,*7D
1494230658.1,27394,15.5,72814.0,7.93,-15.75,-26.49,0,*74
1494230659.36,27395,15.5,72814.0,7.93,-15.43,-26.17,0,*7B
1494230660.61,27396,15.5,72814.8,7.93,-15.39,-25.97,0,*7E
1494230661.84,27397,15.5,72812.8,7.93,-15.11,-25.71,0,*7D
1494230663.1,27398,15.5,72812.8,7.95,-15.89,-26.61,0,*77
1494230664.38,27399,15.5,72812.8,7.95,-16.13,-26.97,0,*7F
1494230665.63,27400,15.56,72818.5,7.95,-16.03,-26.77,0,*77
1494230666.89,27401,15.5,72812.5,7.93,-15.57,-26.33,0,*72
1494230668.12,27402,15.5,72814.8,7.89,-15.95,-26.71,0,*72
1494230669.34,27403,15.5,72818.3,7.93,-15.57,-26.45,0,*71
1494230670.55,27404,15.5,72816.0,7.93,-14.65,-25.65,0,*77
1494230671.79,27405,15.56,72818.3,7.89,-14.01,-25.09,0,*75
1494230673.0,27406,15.5,72814.8,7.93,-14.23,-25.35,0,*72
1494230674.22,27407,15.56,72818.5,7.93,-13.93,-24.87,0,*77
1494230675.5,27408,15.5,72810.8,7.95,-15.43,-26.97,0,*76
1494230676.79,27409,15.5,72808.8,7.95,-15.89,-27.61,0,*79
1494230678.06,27410,15.5,72810.0,7.95,-15.43,-26.97,0,*7F
1494230679.32,27411,15.5,72812.8,7.95,-14.65,-25.97,0,*78
1494230680.57,27412,15.5,72812.0,7.95,-14.55,-25.87,0,*79
1494230681.8,27413,15.56,72816.0,7.97,-14.93,-26.07,0,*7B
1494230683.0,27414,15.56,72812.5,7.97,-15.67,-27.07,0,*77
1494230684.19,27415,15.56,72816.0,7.97,-15.99,-27.13,0,*72
1494230685.42,27416,15.56,72814.3,7.97,-15.67,-26.77,0,*73
1494230686.67,27417,15.5,72810.8,7.97,-17.93,-29.17,0,*72
1494230687.91,27418,15.5,72812.5,7.97,-16.55,-27.35,0,*78
1494230689.16,27419,15.56,72812.5,7.95,-16.89,-27.45,0,*7D
1494230690.39,27420,15.5,72814.8,7.95,-16.79,-27.03,0,*7A
1494230691.62,27421,15.56,72812.0,7.97,-16.65,-26.45,0,*77
1494230692.9,27422,15.5,72812.8,7.95,-17.21,-26.97,0,*78
1494230694.16,27423,15.56,72812.3,7.97,-17.41,-26.93,0,*79
1494230695.41,27424,15.5,72814.3,7.97,-17.55,-26.77,0,*71
1494230696.66,27425,15.5,72812.3,7.99,-16.83,-25.81,0,*7E
1494230697.89,27426,15.56,72814.0,8.01,-16.97,-25.75,0,*7D
1494230699.15,27427,15.56,72814.3,8.01,-17.25,-25.75,0,*74
1494230700.38,27428,15.5,72810.3,8.01,-18.01,-26.65,0,*70
1494230701.66,27429,15.56,72814.0,8.03,-17.97,-26.33,0,*70
1494230702.95,27430,15.56,72814.5,8.03,-17.21,-25.71,0,*70
1494230704.14,27431,15.5,72812.3,8.05,-15.99,-24.31,0,*73
1494230705.33,27432,15.56,72814.5,8.09,-15.49,-23.59,0,*78
1494230706.58,27433,15.5,72812.5,8.17,-17.63,-25.91,0,*7E
1494230707.83,27434,15.56,72814.5,8.17,-18.17,-26.13,0,*7C
1494230709.06,27435,15.56,72814.3,8.19,-16.55,-24.25,0,*7C
1494230710.29,27436,15.5,72812.0,8.23,-16.69,-24.31,0,*7C
1494230711.51,27437,15.56,72816.0,8.27,-17.17,-24.61,0,*74
1494230712.76,27438,15.5,72812.0,8.29,-16.75,-23.99,0,*70
1494230713.98,27439,15.56,72814.0,8.31,-17.41,-24.47,0,*7A
1494230715.23,27440,15.56,72814.0,8.35,-17.93,-24.83,0,*77
1494230716.48,27441,15.5,72812.0,8.41,-17.63,-24.51,0,*75
1494230717.73,27442,15.5,72812.5,8.41,-17.45,-24.05,0,*73
1494230719.01,27443,15.5,72810.8,8.47,-17.97,-24.25,0,*79
1494230720.26,27444,15.5,72812.5,8.47,-18.25,-24.41,0,*7A
1494230721.51,27445,15.56,72814.8,8.45,-17.93,-23.95,0,*75
1494230722.77,27446,15.5,72810.3,8.49,-17.07,-23.19,0,*73
1494230723.99,27447,15.5,72814.0,8.51,-16.89,-22.83,0,*7E
1494230725.26,27448,15.5,72812.8,8.51,-14.93,-20.83,0,*7A
1494230726.48,27449,15.56,72812.5,8.53,-14.23,-20.29,0,*72
1494230727.74,27450,15.5,72808.8,8.59,-14.97,-21.33,0,*75
1494230729.03,27451,15.56,72814.0,8.63,-14.83,-21.27,0,*7D
1494230730.26,27452,15.56,72818.3,8.63,-14.33,-21.43,0,*77
1494230731.53,27453,15.5,72812.8,8.63,-13.33,-20.79,0,*79
1494230732.76,27454,15.5,72814.5,8.65,-12.07,-19.99,0,*7A
1494230734.04,27455,15.5,72812.5,8.67,-11.59,-20.15,0,*7F
1494230735.27,27456,15.5,72814.5,8.69,-12.15,-21.47,0,*7F
1494230736.47,27457,15.56,72816.0,8.73,-12.89,-22.67,0,*71
1494230737.71,27458,15.5,72812.8,8.71,-13.65,-23.85,0,*72
1494230738.96,27459,15.5,72812.5,8.71,-13.43,-24.15,0,*79
1494230740.24,27460,15.56,72812.5,8.71,-13.29,-24.21,0,*78
1494230741.52,27461,15.56,72812.3,8.71,-13.97,-25.45,0,*7F
1494230742.75,27462,15.56,72818.3,8.71,-15.71,-27.67,0,*70
1494230743.98,27463,15.56,72816.8,8.69,-15.95,-28.25,0,*7B
1494230745.2,27464,15.5,72814.0,8.69,-15.21,-27.67,0,*7A
1494230746.43,27465,15.56,72816.3,8.65,-15.67,-28.09,0,*72
1494230747.63,27466,15.56,72816.3,8.65,-15.11,-27.77,0,*76
1494230748.9,27467,15.56,72812.5,8.63,-16.09,-28.75,0,*76
1494230750.15,27468,15.5,72814.0,8.63,-15.99,-28.47,0,*72
1494230751.4,27469,15.5,72812.0,8.59,-18.35,-31.29,0,*71
1494230752.63,27470,15.56,72818.3,8.57,-17.79,-30.33,0,*7A
1494230753.86,27471,15.56,72816.8,8.55,-18.69,-31.33,0,*76
1494230755.09,27472,15.5,72812.8,8.53,-18.49,-30.73,0,*74
1494230756.32,27473,15.5,72818.5,8.49,-17.73,-29.51,0,*70
1494230757.58,27474,15.56,72818.3,8.47,-18.25,-29.89,0,*70
1494230758.78,27475,15.5,72816.8,8.45,-19.99,-32.01,0,*7F
1494230760.04,27476,15.5,72814.5,8.41,-20.39,-32.19,0,*71
1494230761.26,27477,15.56,72818.5,8.39,-19.75,-31.23,0,*77
1494230762.52,27478,15.5,72816.3,8.33,-19.95,-30.73,0,*78
1494230763.79,27479,15.5,72816.0,8.33,-19.41,-29.39,0,*76
1494230765.04,27480,15.56,72818.5,8.29,-19.17,-28.47,0,*70
1494230766.29,27481,15.56,72818.3,8.25,-18.55,-27.03,0,*75
1494230767.57,27482,15.56,72818.0,8.25,-17.79,-25.55,0,*76
1494230768.79,27483,15.5,72818.3,8.21,-18.49,-25.91,0,*77
1494230770.03,27484,15.56,72820.0,8.21,-17.25,-24.05,0,*79
1494230771.27,27485,15.56,72820.8,8.19,-16.41,-23.85,0,*7F
1494230772.47,27486,15.56,72820.3,8.19,-16.41,-25.23,0,*76
1494230773.72,27487,15.56,72822.3,8.19,-17.63,-27.23,0,*74
1494230775.01,27488,15.5,72816.8,8.17,-19.27,-29.35,0,*72
1494230776.21,27489,15.56,72820.3,8.15,-21.47,-32.51,0,*74
1494230777.44,27490,15.5,72814.8,8.09,-20.89,-31.91,0,*7D
1494230778.64,27491,15.5,72814.0,8.05,-21.73,-32.69,0,*70
1494230779.9,27492,15.56,72818.3,8.03,-19.91,-30.61,0,*78
1494230781.18,27493,15.56,72818.5,8.03,-18.59,-29.35,0,*75
1494230782.45,27494,15.56,72816.3,8.03,-19.51,-30.77,0,*75
1494230783.71,27495,15.56,72814.5,7.99,-20.35,-31.91,0,*79
1494230784.98,27496,15.56,72816.5,7.99,-19.27,-30.33,0,*7A
1494230786.24,27497,15.56,72816.5,7.97,-17.93,-29.35,0,*7A
1494230787.52,27498,15.56,72816.3,7.95,-18.35,-29.89,0,*73
1494230788.8,27499,15.56,72818.8,7.99,-18.35,-30.01,0,*76
1494230790.05,27500,15.56,72820.8,7.95,-18.25,-30.05,0,*7E
1494230791.33,27501,15.56,72818.3,7.95,-17.93,-30.01,0,*79
1494230792.53,27502,15.56,72816.3,7.93,-18.69,-31.05,0,*73
1494230793.74,27503,15.56,72816.5,7.93,-17.87,-30.27,0,*7C
1494230794.98,27504,15.5,72814.8,7.93,-18.21,-30.89,0,*7C
1494230796.23,27505,15.56,72816.3,7.89,-18.59,-31.23,0,*78
1494230797.46,27506,15.5,72812.5,7.89,-17.25,-29.79,0,*79
1494230798.72,27507,15.56,72816.0,7.87,-17.87,-30.73,0,*7C
1494230799.99,27508,15.56,72816.8,7.87,-18.31,-31.29,0,*7F
1494230801.23,27509,15.56,72816.0,7.85,-17.93,-30.83,0,*7A
1494230802.46,27510,15.56,72818.3,7.85,-19.41,-32.69,0,*75
1494230803.7,27511,15.56,72812.0,7.81,-19.71,-32.85,0,*71
1494230804.93,27512,15.56,72816.5,7.81,-18.25,-31.23,0,*7D
1494230806.19,27513,15.56,72818.8,7.77,-18.31,-31.17,0,*77
1494230807.42,27514,15.56,72814.8,7.79,-18.01,-30.83,0,*71
1494230808.62,27515,15.5,72812.0,7.79,-18.17,-31.01,0,*7C
1494230809.85,27516,15.56,72812.5,7.79,-18.31,-31.17,0,*7C
1494230811.08,27517,15.56,72814.8,7.77,-18.65,-31.45,0,*75
1494230812.34,27518,15.56,72812.5,7.77,-18.35,-31.01,0,*7F
1494230813.55,27519,15.56,72814.8,7.75,-19.81,-32.69,0,*7F
1494230814.82,27520,15.56,72818.0,7.73,-21.27,-34.35,0,*7B
1494230816.03,27521,15.56,72814.8,7.67,-20.35,-32.57,0,*7F
1494230817.32,27522,15.56,72818.5,7.65,-19.27,-31.61,0,*71
1494230818.57,27523,15.56,72814.0,7.65,-19.23,-31.33,0,*73
1494230819.8,27524,15.56,72816.8,7.63,-19.03,-30.89,0,*70
1494230821.02,27525,15.56,72814.3,7.63,-19.99,-32.29,0,*7A
1494230822.26,27526,15.56,72812.3,7.63,-18.93,-30.83,0,*70
1494230823.45,27527,15.56,72816.0,7.63,-18.65,-30.11,0,*73
1494230824.68,27528,15.56,72816.5,7.65,-18.45,-29.45,0,*71
1494230825.9,27529,15.56,72818.8,7.65,-18.49,-29.45,0,*7C
1494230827.12,27530,15.56,72816.5,7.63,-18.07,-28.79,0,*76
1494230828.31,27531,15.56,72818.3,7.67,-18.79,-29.79,0,*7B
1494230829.54,27532,15.5,72812.0,7.67,-18.59,-29.57,0,*76
1494230830.76,27533,15.56,72814.5,7.67,-18.25,-29.35,0,*78
1494230831.98,27534,15.56,72816.0,7.71,-17.73,-28.47,0,*70
1494230833.18,27535,15.56,72818.3,7.71,-17.87,-28.69,0,*76
1494230834.4,27536,15.56,72814.8,7.75,-17.93,-28.97,0,*75
1494230835.62,27537,15.56,72814.0,7.77,-18.99,-30.11,0,*74
1494230836.88,27538,15.5,72812.8,7.73,-19.27,-30.33,0,*7B
1494230838.14,27539,15.56,72816.5,7.73,-19.95,-30.77,0,*73
1494230839.37,27540,15.56,72818.8,7.75,-20.15,-30.83,0,*72
1494230840.62,27541,15.56,72816.3,7.73,-20.05,-30.77,0,*7F
1494230841.87,27542,15.56,72818.5,7.73,-20.39,-31.11,0,*72
1494230843.11,27543,15.56,72818.3,7.73,-18.83,-29.29,0,*7B
1494230844.35,27544,15.56,72818.8,7.75,-18.31,-28.75,0,*7B
1494230845.6,27545,15.56,72818.3,7.77,-18.21,-28.75,0,*79
1494230846.82,27546,15.56,72818.0,7.79,-16.89,-27.39,0,*7F
1494230848.1,27547,15.56,72816.8,7.83,-16.13,-26.17,0,*75
1494230849.38,27548,15.56,72814.5,7.87,-17.45,-27.45,0,*7A
1494230850.61,27549,15.56,72814.5,7.89,-18.55,-28.53,0,*73
1494230851.84,27550,15.56,72816.0,7.93,-18.07,-27.99,0,*7E
1494230853.07,27551,15.56,72818.8,7.97,-18.69,-28.47,0,*7F
1494230854.27,27552,15.56,72818.5,7.97,-16.93,-26.45,0,*7B
1494230855.53,27553,15.56,72820.5,8.03,-16.41,-25.81,0,*7C
1494230856.81,27554,15.56,72820.3,8.07,-17.41,-26.97,0,*7A
1494230858.04,27555,15.56,72820.5,8.09,-17.25,-26.39,0,*73
1494230859.28,27556,15.56,72820.3,8.17,-15.67,-24.67,0,*72
1494230860.5,27557,15.56,72816.0,8.23,-15.81,-24.93,0,*77
1494230861.71,27558,15.56,72816.8,8.27,-16.55,-25.61,0,*7A
1494230862.96,27559,15.56,72818.5,8.31,-17.17,-26.17,0,*79
1494230864.18,27560,15.56,72820.0,8.35,-17.79,-26.87,0,*76
1494230865.4,27561,15.56,72816.8,8.35,-17.83,-26.81,0,*74
1494230866.66,27562,15.56,72816.3,8.35,-17.97,-27.19,0,*72
1494230867.89,27563,15.56,72814.8,8.41,-19.71,-28.85,0,*7C
1494230869.13,27564,15.56,72812.8,8.41,-20.93,-30.39,0,*73
1494230870.41,27565,15.56,72812.5,8.41,-19.61,-28.79,0,*78
1494230871.64,27566,15.56,72816.5,8.45,-18.11,-27.35,0,*7E
1494230872.9,27567,15.56,72814.5,8.45,-17.93,-26.97,0,*73
1494230874.15,27568,15.56,72818.8,8.51,-16.83,-26.13,0,*75
1494230875.38,27569,15.56,72816.0,8.55,-16.83,-25.87,0,*7E
1494230876.63,27570,15.56,72816.3,8.59,-16.17,-24.97,0,*77
1494230877.92,27571,15.56,72816.0,8.63,-16.69,-25.55,0,*79
1494230879.15,27572,15.56,72816.8,8.69,-16.93,-25.55,0,*75
1494230880.4,27573,15.56,72820.3,8.71,-18.35,-27.29,0,*76
1494230881.65,27574,15.56,72822.8,8.73,-19.61,-28.75,0,*75
1494230882.85,27575,15.56,72820.5,8.73,-20.63,-29.79,0,*71
1494230884.1,27576,15.56,72820.5,8.71,-21.77,-31.11,0,*73
1494230885.33,27577,15.56,72820.0,8.69,-21.03,-30.33,0,*79
1494230886.56,27578,15.56,72818.8,8.67,-20.39,-29.95,0,*74
1494230887.79,27579,15.56,72820.0,8.67,-19.95,-29.57,0,*77
1494230889.07,27580,15.56,72820.3,8.67,-19.23,-28.91,0,*77
1494230890.28,27581,15.56,72816.5,8.69,-18.79,-28.37,0,*7A
1494230891.51,27582,15.56,72816.5,8.69,-18.41,-28.09,0,*7F
1494230892.76,27583,15.56,72816.0,8.69,-19.85,-29.73,0,*7B
1494230893.99,27584,15.56,72816.5,8.69,-20.25,-30.17,0,*76
1494230895.25,27585,15.56,72816.8,8.67,-21.03,-31.17,0,*7D
1494230896.5,27586,15.56,72818.8,8.67,-20.53,-30.45,0,*7C
1494230897.74,27587,15.56,72816.8,8.69,-19.57,-29.61,0,*73
1494230898.95,27588,15.56,72820.5,8.71,-20.09,-30.27,0,*7E
1494230900.18,27589,15.56,72816.3,8.67,-21.39,-32.01,0,*7C
1494230901.4,27590,15.56,72816.8,8.63,-22.07,-33.03,0,*7D
1494230902.65,27591,15.56,72816.5,8.59,-21.03,-32.13,0,*72
1494230903.84,27592,15.56,72818.3,8.57,-20.29,-31.67,0,*76
1494230905.11,27593,15.56,72818.3,8.55,-19.81,-30.17,0,*7B
1494230906.34,27594,15.56,72822.8,8.53,-20.93,-31.23,0,*75
1494230907.55,27595,15.56,72820.8,8.49,-22.27,-33.03,0,*72
1494230908.77,27596,15.56,72820.0,8.45,-23.23,-34.41,0,*79